Location: Drocourt
(49.0571°N, 1.7669°E)
Time: 14:41:06
(UTC+00:00)

Vanguard 2 Rocket - Pass Details

Date: 21 April 2024
Orbit: 556 x 3304 km, 32.9° (Epoch: 22 May)

Event Time Altitude Azimuth Distance (km) Brightness Sun altitude
Rises 22:51:40 0° 250° (WSW) 6,549 11.2 -27.3°
Reaches altitude 10° 22:55:53 10° 245° (WSW) 5,791 10.9 -27.4°
Maximum altitude 23:13:28 48° 179° (S) 3,967 9.6 -28.1°
Drops below altitude 10° 23:30:49 10° 114° (ESE) 5,718 10.7 -28.5°
Sets 23:34:56 0° 109° (ESE) 6,465 11.0 -28.5°
